Regional Weather Roundup
Issued by NWS

Home | Current Version | Previous Version | Text Only | Print | Product List | Glossary On
Versions: 1 2 3 4 5 6 7 8 9 10 11 12 13 14 15 16 17 18 19 20 21 22 23 24 25 26
000
ASUS44 KBMX 141010
RWRAL

ALABAMA REGIONAL WEATHER ROUNDUP
NATIONAL WEATHER SERVICE BIRMINGHAM AL
400 AM CST THU DEC 14 2017

NOTE: "FAIR" INDICATES FEW OR NO CLOUDS BELOW 12,000 FEET
WITH NO SIGNIFICANT WEATHER AND/OR OBSTRUCTIONS TO VISIBILITY.

THE REMARK "TC" DENOTES TEMPERATURE IN DEGREES CELSIUS.

ALZ001>011-014-016>018-020-141100-
NORTH ALABAMA

CITY           SKY/WX    TMP DP  RH WIND       PRES   REMARKS
MUSCLE SHOALS  CLEAR     36  27  69 NW3       29.87S
HUNTSVILLE     CLEAR     35  27  72 SE3       29.85S
DECATUR        CLEAR     40  30  67 W3        29.86S
HALEYVILLE     FAIR      33  27  78 CALM      29.88F
GADSDEN        CLEAR     40  29  64 CALM      29.87S
$$

ALZ012-013-022-023-030>036-040>044-141100-
WEST CENTRAL ALABAMA

CITY           SKY/WX    TMP DP  RH WIND       PRES   REMARKS
TUSCALOOSA     CLEAR     32  30  92 CALM      29.92S
DEMOPOLIS        N/A     38  32  81 SE3       29.93F
$$

ALZ015-024>026-033>036-041>044-141100-
CENTRAL ALABAMA

CITY           SKY/WX    TMP DP  RH WIND       PRES   REMARKS
BIRMINGHAM     CLEAR     37  29  72 CALM      29.91F
MONTGOMERY     PTCLDY    35  29  78 S3        29.94F
SHELBY CO ARPT CLEAR     35  30  82 CALM      29.90S
MAXWELL AFB    CLOUDY    35  32  89 CALM      29.92S
GREENVILLE     FAIR      36  30  79 CALM      29.93F
SELMA          FAIR      37  32  81 S5        29.94S WCI  34
PRATTVILLE     FAIR      31  31  98 CALM      29.93S
BESSEMER       FAIR      37  29  72 SW6       29.90F WCI  32
TALLADEGA      FAIR      33  29  84 CALM      29.90S
PELL CITY      SUNNY     28  30 100 CALM      29.89F
MARION         FAIR      32  31  98 CALM      29.93S
SYLACAUGA      FAIR      32  31  96 CALM      29.90F
$$

ALZ019-021-028-029-037-038-045>048-141100-
EAST CENTRAL ALABAMA

CITY           SKY/WX    TMP DP  RH WIND       PRES   REMARKS
ANNISTON       CLEAR     36  28  73 CALM      29.89S
ALEXANDER CITY CLEAR     32  32 100 CALM      29.90F
AUBURN         CLOUDY    36  30  79 SW6       29.92F WCI  31
$$

ALZ051>064-141100-
SOUTHWEST ALABAMA

CITY           SKY/WX    TMP DP  RH WIND       PRES   REMARKS
MOBILE         PTCLDY    45  41  86 W3        29.96F
BROOKLEY FIELD PTCLDY    43  41  93 S5        29.97F
EVERGREEN      PTCLDY    35  32  88 CALM      29.95F
$$

ALZ049-050-065>069-141100-
SOUTHEAST ALABAMA

CITY           SKY/WX    TMP DP  RH WIND       PRES   REMARKS
DOTHAN         CLOUDY    41  36  82 SW7       29.99R
OZARK          PTCLDY    38  34  85 CALM      29.95S
TROY           CLOUDY    37  33  85 CALM      29.95S
EUFAULA        FAIR      38  33  82 CALM      29.92F
$$




USA.gov is the U.S. government's official web portal to all federal, state and local government web resources and services.